Weather History for Istanbul, Turkey

Change the Weather History Date:

Friday, November 16, 2012

  Actual Average Record
Temperature  
Mean Temperature 58 °F -  
Max Temperature 62 °F 53 °F 66 °F (2000)
Min Temperature 54 °F 44 °F 41 °F (2003)
Degree Days  
Heating Degree Days 7    
Growing Degree Days 8 (Base 50)    
Moisture  
Dew Point 48 °F    
Average Humidity 68    
Maximum Humidity 77    
Minimum Humidity 46    
Precipitation  
Precipitation 0.00 in - - ()
Sea Level Pressure  
Sea Level Pressure 30.23 in    
Wind  
Wind Speed 8 mph ()    
Max Wind Speed 15 mph    
Max Gust Speed 25 mph    
Visibility 6.2 miles    
Events      
Averages and records for this station are not official NWS values.
T = Trace of Precipitation, MM = Missing Value Source: Averaged Metar Reports

Daily Weather History Graph

Daily Weather History Graph

Search for Another Location

Airport:

Trip Planner

Search our weather history database for the weather conditions in past years. The results will help you decide how hot, cold, wet, or windy it might be!

Date:

Astronomy

Nov. 16, 2012 Rise Set
Actual Time 6:53 AM EET 4:45 PM EET
Civil Twilight 6:23 AM EET 5:14 PM EET
Nautical Twilight 5:50 AM EET 5:48 PM EET
Astronomical Twilight 5:18 AM EET 6:20 PM EET
Moon 9:30 AM EET (11/16) 7:21 PM EET (11/16)
Length of Visible Light 10h 50m
Length of Day
9h 51m
Waxing Crescent, 9% of the Moon is Illuminated
Nov 16
Waxing Crescent
Nov 20
First Quarter
Nov 28
Full
Dec 6
Last Quarter
Dec 13
New

Hourly Weather History & Observations

Time (EET) Temp. Dew Point Humidity Pressure Visibility Wind Dir Wind Speed Gust Speed Precip Events Conditions
12:20 AM 57.2 °F 48.2 °F 72% 30.21 in - ENE 6.9 mph - N/A   Clear
12:50 AM 55.4 °F 48.2 °F 77% 30.21 in - ENE 6.9 mph - N/A   Clear
1:20 AM 57.2 °F 48.2 °F 72% 30.21 in - ENE 5.8 mph - N/A   Clear
1:50 AM 57.2 °F 48.2 °F 72% 30.21 in - ENE 6.9 mph - N/A   Clear
2:00 AM 56 °F 47 °F 64% 30.23 in 6 mi ENE 6.9 mph - -  
2:20 AM 55.4 °F 48.2 °F 77% 30.21 in - NE 6.9 mph - N/A   Clear
2:50 AM 55.4 °F 48.2 °F 77% 30.21 in - NE 6.9 mph - N/A   Clear
3:20 AM 55.4 °F 48.2 °F 77% 30.21 in - NE 4.6 mph - N/A   Clear
3:50 AM 53.6 °F 46.4 °F 77% 30.21 in - East 4.6 mph - N/A   Clear
4:20 AM 55.4 °F 48.2 °F 77% 30.21 in - NE 6.9 mph - N/A   Clear
4:50 AM 55.4 °F 48.2 °F 77% 30.21 in - NNE 6.9 mph - N/A   Clear
5:20 AM 55.4 °F 48.2 °F 77% 30.21 in - NNE 8.1 mph - N/A   Clear
5:50 AM 55.4 °F 48.2 °F 77% 30.21 in - NE 8.1 mph - N/A   Clear
6:20 AM 55.4 °F 48.2 °F 77% 30.21 in - NE 5.8 mph - N/A   Clear
6:50 AM 55.4 °F 48.2 °F 77% 30.21 in 6.2 mi NE 9.2 mph - N/A   Partly Cloudy
7:20 AM 57.2 °F 48.2 °F 72% 30.21 in 6.2 mi NE 6.9 mph - N/A   Partly Cloudy
7:50 AM 57.2 °F 48.2 °F 72% 30.24 in 6.2 mi NE 5.8 mph - N/A   Partly Cloudy
8:00 AM 56 °F 48 °F 67% 30.24 in 6 mi NE 5.8 mph - -   Scattered Clouds
8:20 AM 59.0 °F 50.0 °F 72% 30.24 in 6.2 mi NE 8.1 mph - N/A   Partly Cloudy
8:50 AM 59.0 °F 48.2 °F 67% 30.24 in 6.2 mi ENE 11.5 mph - N/A   Partly Cloudy
9:20 AM 60.8 °F 48.2 °F 63% 30.24 in 6.2 mi NE 10.4 mph - N/A   Partly Cloudy
9:50 AM 60.8 °F 48.2 °F 63% 30.24 in 6.2 mi NE 10.4 mph - N/A   Scattered Clouds
10:20 AM 60.8 °F 48.2 °F 63% 30.24 in 6.2 mi ENE 15.0 mph - N/A   Scattered Clouds
10:50 AM 60.8 °F 48.2 °F 63% 30.24 in 6.2 mi NE 15.0 mph - N/A   Scattered Clouds
11:20 AM 60.8 °F 48.2 °F 63% 30.24 in 6.2 mi ENE 10.4 mph - N/A   Scattered Clouds
11:50 AM 60.8 °F 46.4 °F 59% 30.24 in 6.2 mi NE 15.0 mph - N/A   Mostly Cloudy
12:20 PM 60.8 °F 46.4 °F 59% 30.24 in 6.2 mi NE 12.7 mph - N/A   Mostly Cloudy
1:20 PM 62.6 °F 46.4 °F 55% 30.21 in 6.2 mi ENE 12.7 mph - N/A   Scattered Clouds
1:50 PM 60.8 °F 46.4 °F 59% 30.21 in 6.2 mi NE 13.8 mph - N/A   Scattered Clouds
2:00 PM 62 °F 46 °F 46% 30.24 in 6 mi NE 13.8 mph - -   Partly Cloudy
2:20 PM 60.8 °F 46.4 °F 59% 30.21 in 6.2 mi NE 13.8 mph - N/A   Scattered Clouds
2:50 PM 60.8 °F 46.4 °F 59% 30.21 in 6.2 mi NE 15.0 mph - N/A   Scattered Clouds
3:20 PM 60.8 °F 46.4 °F 59% 30.21 in 6.2 mi NE 13.8 mph 25.3 mph N/A   Scattered Clouds
3:50 PM 60.8 °F 46.4 °F 59% 30.21 in 6.2 mi NE 13.8 mph - N/A   Scattered Clouds
4:20 PM 60.8 °F 46.4 °F 59% 30.21 in 6.2 mi NE 11.5 mph - N/A   Scattered Clouds
4:50 PM 59.0 °F 48.2 °F 67% 30.24 in 6.2 mi NE 12.7 mph - N/A   Scattered Clouds
5:20 PM 59.0 °F 48.2 °F 67% 30.24 in 6.2 mi NE 13.8 mph - N/A   Scattered Clouds
5:50 PM 59.0 °F 48.2 °F 67% 30.24 in 6.2 mi NE 13.8 mph - N/A   Scattered Clouds
6:20 PM 57.2 °F 46.4 °F 67% 30.24 in - NE 12.7 mph - N/A   Clear
6:50 PM 59.0 °F 48.2 °F 67% 30.24 in - NE 13.8 mph - N/A   Clear
7:20 PM 59.0 °F 48.2 °F 67% 30.24 in - NE 13.8 mph - N/A   Clear
7:50 PM 57.2 °F 48.2 °F 72% 30.24 in - NE 12.7 mph - N/A   Clear
8:00 PM 58 °F 48 °F 60% 30.25 in 6 mi NE 12.7 mph - -  
8:20 PM 57.2 °F 48.2 °F 72% 30.24 in - NE 12.7 mph - N/A   Clear
8:50 PM 59.0 °F 48.2 °F 67% 30.24 in - ENE 9.2 mph - N/A   Clear
9:20 PM 59.0 °F 46.4 °F 63% 30.24 in - Variable 11.5 mph - N/A   Clear
9:50 PM 57.2 °F 46.4 °F 67% 30.24 in - NE 11.5 mph - N/A   Clear
10:20 PM 57.2 °F 48.2 °F 72% 30.24 in - NE 10.4 mph - N/A   Clear
10:50 PM 57.2 °F 48.2 °F 72% 30.21 in - NE 11.5 mph - N/A   Clear
11:20 PM 57.2 °F 48.2 °F 72% 30.24 in - NE 10.4 mph - N/A   Clear
11:50 PM 57.2 °F 48.2 °F 72% 30.21 in - NE 10.4 mph - N/A   Clear